| time (UTC) | temp F | wind direction | speed knots | gust knots | rain 1hr in | rain 24hr in | rain mn in | humidity % | barometer mb |
| 20260504204535 | 75 | 101 | 0.0 | 0.9 | 0.00 | 0.00 | 0.00 | 68 | 1011.2 |
| 20260504203045 | 76 | 104 | 0.0 | 1.7 | 0.00 | 0.00 | 0.00 | 67 | 1011.1 |
| 20260504201532 | 77 | 83 | 0.9 | 5.2 | 0.00 | 0.00 | 0.00 | 65 | 1011.0 |
| 20260504200032 | 78 | 80 | 0.9 | 4.3 | 0.00 | 0.00 | 0.00 | 63 | 1010.8 |
| 20260504194539 | 79 | 64 | 2.6 | 7.0 | 0.00 | 0.00 | 0.00 | 61 | 1010.8 |
| 20260504193032 | 79 | 63 | 0.9 | 4.3 | 0.00 | 0.00 | 0.00 | 61 | 1010.7 |
| 20260504191536 | 79 | 55 | 2.6 | 7.0 | 0.00 | 0.00 | 0.00 | 59 | 1010.7 |
| 20260504190028 | 80 | 58 | 2.6 | 7.0 | 0.00 | 0.00 | 0.00 | 56 | 1010.6 |
| 20260504184529 | 81 | 59 | 2.6 | 7.0 | 0.00 | 0.00 | 0.00 | 51 | 1010.5 |
| 20260504183026 | 82 | 44 | 0.0 | 9.6 | 0.00 | 0.00 | 0.00 | 53 | 1010.4 |
| 20260504181523 | 81 | 32 | 3.5 | 8.7 | 0.00 | 0.00 | 0.00 | 55 | 1010.3 |
| 20260504180022 | 80 | 61 | 3.5 | 7.8 | 0.00 | 0.00 | 0.00 | 59 | 1010.3 |
| 20260504174521 | 81 | 55 | 1.7 | 6.1 | 0.00 | 0.00 | 0.00 | 56 | 1010.6 |
| 20260504173021 | 82 | 75 | 5.2 | 9.6 | 0.00 | 0.00 | 0.00 | 53 | 1010.7 |
| 20260504171519 | 81 | 45 | 2.6 | 8.7 | 0.00 | 0.00 | 0.00 | 57 | 1010.7 |
| 20260504081509 | 63 | 155 | 0.0 | 4.3 | 0.00 | 0.00 | 0.00 | 93 | 1010.8 |
| 20260504044549 | 61 | 197 | 0.0 | 3.5 | 0.00 | 0.00 | 0.00 | 92 | 1010.4 |
| 20260504043020 | 61 | 203 | 0.0 | 0.9 | 0.00 | 0.00 | 0.00 | 92 | 1010.4 |
| 20260504041519 | 61 | 194 | 0.0 | 0.9 | 0.00 | 0.00 | 0.00 | 92 | 1010.4 |
| 20260504040034 | 62 | 187 | 0.0 | 1.7 | 0.00 | 0.00 | 0.00 | 92 | 1010.5 |
| 20260504034512 | 62 | 166 | 0.9 | 3.5 | 0.00 | 0.00 | 0.00 | 92 | 1010.6 |
| 20260504033011 | 62 | 184 | 0.0 | 1.7 | 0.00 | 0.00 | 0.00 | 92 | 1010.5 |
| 20260504031510 | 62 | 166 | 0.0 | 1.7 | 0.00 | 0.00 | 0.00 | 92 | 1010.4 |
| 20260504030009 | 62 | 169 | 0.0 | 0.9 | 0.00 | 0.00 | 0.00 | 92 | 1010.5 |
| 20260504024505 | 62 | 163 | 0.0 | 3.5 | 0.00 | 0.00 | 0.00 | 92 | 1010.3 |
| 20260504023006 | 62 | 163 | 0.0 | 4.3 | 0.00 | 0.00 | 0.00 | 92 | 1010.4 |
| 20260504021504 | 62 | 151 | 0.0 | 0.9 | 0.00 | 0.00 | 0.00 | 91 | 1010.5 |
| 20260504020004 | 62 | 192 | 0.0 | 0.0 | 0.00 | 0.00 | 0.00 | 90 | 1010.5 |
| 20260504014507 | 63 | 192 | 0.0 | 1.7 | 0.00 | 0.00 | 0.00 | 90 | 1010.6 |
| 20260504013002 | 63 | 172 | 0.0 | 1.7 | 0.00 | 0.00 | 0.00 | 90 | 1010.6 |
| 20260504011501 | 63 | 146 | 0.0 | 0.0 | 0.00 | 0.00 | 0.00 | 89 | 1010.5 |
| 20260504010058 | 64 | 132 | 0.0 | 0.9 | 0.00 | 0.00 | 0.00 | 88 | 1010.6 |
| 20260504004558 | 64 | 123 | 0.0 | 0.0 | 0.00 | 0.00 | 0.00 | 86 | 1010.6 |
| 20260504003105 | 65 | 123 | 0.0 | 0.0 | 0.00 | 0.00 | 0.00 | 86 | 1010.5 |
| 20260504001607 | 65 | 123 | 0.0 | 0.0 | 0.00 | 0.00 | 0.00 | 85 | 1010.5 |
| 20260504000105 | 66 | 123 | 0.0 | 0.0 | 0.00 | 0.00 | 0.00 | 84 | 1010.6 |
| 20260503234547 | 67 | 123 | 0.0 | 0.0 | 0.00 | 0.00 | 0.00 | 82 | 1010.5 |
| 20260503233047 | 67 | 123 | 0.0 | 0.0 | 0.00 | 0.00 | 0.00 | 80 | 1010.5 |
| 20260503231548 | 67 | 123 | 0.0 | 0.0 | 0.00 | 0.00 | 0.00 | 80 | 1010.5 |
| 20260503230046 | 68 | 123 | 0.0 | 0.0 | 0.00 | 0.00 | 0.00 | 79 | 1010.3 |
| 20260503224547 | 68 | 123 | 0.0 | 0.0 | 0.00 | 0.00 | 0.00 | 78 | 1010.3 |
| 20260503223046 | 70 | 123 | 0.0 | 0.9 | 0.00 | 0.00 | 0.00 | 76 | 1010.0 |
| 20260503221552 | 71 | 110 | 0.0 | 0.9 | 0.00 | 0.00 | 0.00 | 74 | 1009.9 |
| 20260503220045 | 71 | 111 | 0.0 | 1.7 | 0.00 | 0.00 | 0.00 | 73 | 1009.7 |
| 20260503214544 | 72 | 101 | 0.9 | 4.3 | 0.00 | 0.00 | 0.00 | 71 | 1009.6 |
| 20260503213046 | 72 | 88 | 1.7 | 4.3 | 0.00 | 0.00 | 0.00 | 70 | 1009.3 |
| 20260503211544 | 73 | 84 | 0.0 | 1.7 | 0.00 | 0.00 | 0.00 | 70 | 1009.3 |
| 20260503210052 | 74 | 81 | 0.0 | 3.5 | 0.00 | 0.00 | 0.00 | 67 | 1009.2 |